DAL2642 KATL-KPHL

Flight info

Callsign DAL2642
Flight time 1h 31m
Altitude 35000
Route PLMMR3 BURGG Q22 BEARI BBDOL PAATS4
Aircraft A321/M-SDE3FGHIRWY/LB1

Departure

Time 2026-05-05 02:08
Airport Hartsfield Jackson Atlanta International Airport (KATL)

Arrival

Time 2026-05-05 03:39
Airport Philadelphia International Airport (KPHL)
Time Latitude Longitude Altitude Speed Heading
2026-05-05 01:33 33.63834 -84.43643 1007 ft 0 kts 90°
2026-05-05 01:57 33.63834 -84.43644 1006 ft 1 kts 90°
2026-05-05 01:58 33.63834 -84.43672 1002 ft 4 kts 90°
2026-05-05 01:58 33.63834 -84.43698 1006 ft 4 kts 98°
2026-05-05 01:58 33.63844 -84.43720 1006 ft 4 kts 168°
2026-05-05 01:58 33.63853 -84.43721 1006 ft 0 kts 180°
2026-05-05 02:00 33.63832 -84.43721 1006 ft 11 kts 180°
2026-05-05 02:00 33.63747 -84.43721 1006 ft 4 kts 179°
2026-05-05 02:02 33.63728 -84.43721 1006 ft 9 kts 179°
2026-05-05 02:02 33.63664 -84.43633 1006 ft 23 kts 93°
2026-05-05 02:02 33.63663 -84.43398 1006 ft 30 kts 90°
2026-05-05 02:03 33.63663 -84.43150 1006 ft 29 kts 90°
2026-05-05 02:03 33.63663 -84.42910 1006 ft 28 kts 90°
2026-05-05 02:03 33.63657 -84.42681 1007 ft 27 kts 92°
2026-05-05 02:03 33.63654 -84.42465 1007 ft 26 kts 89°
2026-05-05 02:04 33.63656 -84.42255 1007 ft 25 kts 89°
2026-05-05 02:04 33.63657 -84.42053 1007 ft 24 kts 90°
2026-05-05 02:04 33.63656 -84.41849 1006 ft 27 kts 90°
2026-05-05 02:04 33.63656 -84.41585 1006 ft 36 kts 90°
2026-05-05 02:05 33.63653 -84.41248 1006 ft 45 kts 91°
2026-05-05 02:05 33.63654 -84.40960 1006 ft 22 kts 99°
2026-05-05 02:05 33.63582 -84.40908 1006 ft 4 kts 180°
2026-05-05 02:05 33.63574 -84.40908 1006 ft 0 kts 181°
2026-05-05 02:06 33.63573 -84.40908 1006 ft 1 kts 181°
2026-05-05 02:06 33.63539 -84.40909 1007 ft 9 kts 181°
2026-05-05 02:06 33.63473 -84.40957 1007 ft 16 kts 256°
2026-05-05 02:07 33.63471 -84.41185 1005 ft 54 kts 270°
2026-05-05 02:07 33.63469 -84.41907 1007 ft 116 kts 270°
2026-05-05 02:07 33.63470 -84.43079 1006 ft 162 kts 270°
2026-05-05 02:07 33.63462 -84.44496 1459 ft 164 kts 269°
2026-05-05 02:08 33.63462 -84.45856 2068 ft 163 kts 264°
2026-05-05 02:08 33.63399 -84.47207 2654 ft 162 kts 254°
2026-05-05 02:08 33.63019 -84.48456 3235 ft 158 kts 238°
2026-05-05 02:08 33.62515 -84.49627 3797 ft 157 kts 239°
2026-05-05 02:09 33.61998 -84.50851 4125 ft 174 kts 240°
2026-05-05 02:09 33.61419 -84.52223 4300 ft 195 kts 240°
2026-05-05 02:09 33.60770 -84.53762 4433 ft 218 kts 240°
2026-05-05 02:09 33.60053 -84.55468 4612 ft 239 kts 241°
2026-05-05 02:10 33.59138 -84.57159 5003 ft 250 kts 223°
2026-05-05 02:10 33.57641 -84.58253 5540 ft 258 kts 197°
2026-05-05 02:10 33.55836 -84.58519 5916 ft 265 kts 182°
2026-05-05 02:10 33.53992 -84.58533 6004 ft 265 kts 181°
2026-05-05 02:11 33.52135 -84.58514 6286 ft 270 kts 180°
2026-05-05 02:11 33.50259 -84.58489 7090 ft 270 kts 181°
2026-05-05 02:11 33.48378 -84.58255 7803 ft 277 kts 163°
2026-05-05 02:11 33.46733 -84.57026 8474 ft 286 kts 134°
2026-05-05 02:12 33.45774 -84.54928 9153 ft 295 kts 103°
2026-05-05 02:12 33.45622 -84.49926 10320 ft 313 kts 91°
2026-05-05 02:12 33.45626 -84.47223 10458 ft 336 kts 91°
2026-05-05 02:13 33.45627 -84.44335 10578 ft 358 kts 91°
2026-05-05 02:13 33.45622 -84.41281 10817 ft 373 kts 91°
2026-05-05 02:13 33.45666 -84.38139 11336 ft 380 kts 85°
2026-05-05 02:13 33.46196 -84.35026 11987 ft 385 kts 72°
2026-05-05 02:14 33.47312 -84.32091 12596 ft 389 kts 58°
2026-05-05 02:14 33.48958 -84.29510 13207 ft 392 kts 45°
2026-05-05 02:14 33.50880 -84.27172 13818 ft 396 kts 45°
2026-05-05 02:14 33.52822 -84.24815 14372 ft 399 kts 45°
2026-05-05 02:15 33.54779 -84.22436 14908 ft 402 kts 44°
2026-05-05 02:15 33.56726 -84.20065 15431 ft 406 kts 44°
2026-05-05 02:15 33.58740 -84.17608 15960 ft 410 kts 44°
2026-05-05 02:15 33.60717 -84.15192 16434 ft 413 kts 44°
2026-05-05 02:16 33.62736 -84.12719 16945 ft 417 kts 44°
2026-05-05 02:16 33.64778 -84.10218 17446 ft 420 kts 44°
2026-05-05 02:16 33.66833 -84.07701 17946 ft 424 kts 44°
2026-05-05 02:16 33.68906 -84.05167 18432 ft 427 kts 44°
2026-05-05 02:17 33.70997 -84.02610 18872 ft 430 kts 44°
2026-05-05 02:17 33.73097 -84.00037 19319 ft 432 kts 44°
2026-05-05 02:17 33.75207 -83.97450 19773 ft 435 kts 44°
2026-05-05 02:17 33.77331 -83.94845 20206 ft 437 kts 44°
2026-05-05 02:18 33.79463 -83.92229 20647 ft 440 kts 44°
2026-05-05 02:18 33.81608 -83.89591 21083 ft 442 kts 44°
2026-05-05 02:18 33.83761 -83.86935 21515 ft 445 kts 44°
2026-05-05 02:18 33.85924 -83.84262 21948 ft 447 kts 44°
2026-05-05 02:19 33.88100 -83.81573 22385 ft 450 kts 44°
2026-05-05 02:19 33.90297 -83.78864 22830 ft 452 kts 44°
2026-05-05 02:19 33.92502 -83.76143 23255 ft 455 kts 44°
2026-05-05 02:19 33.94710 -83.73404 23663 ft 457 kts 45°
2026-05-05 02:20 33.96718 -83.70406 24002 ft 461 kts 51°
2026-05-05 02:20 33.98633 -83.67289 24344 ft 464 kts 52°
2026-05-05 02:20 34.00555 -83.64154 24685 ft 466 kts 52°
2026-05-05 02:20 34.02484 -83.61007 25022 ft 468 kts 51°
2026-05-05 02:21 34.04421 -83.57845 25351 ft 470 kts 51°
2026-05-05 02:21 34.06366 -83.54666 25670 ft 472 kts 52°
2026-05-05 02:21 34.08295 -83.51511 25971 ft 474 kts 52°
2026-05-05 02:21 34.10261 -83.48296 26266 ft 477 kts 52°
2026-05-05 02:22 34.12260 -83.45031 26573 ft 479 kts 52°
2026-05-05 02:22 34.14221 -83.41829 26856 ft 481 kts 52°
2026-05-05 02:22 34.16212 -83.38569 27153 ft 484 kts 52°
2026-05-05 02:22 34.18215 -83.35282 27453 ft 486 kts 52°
2026-05-05 02:23 34.20222 -83.31989 27756 ft 488 kts 52°
2026-05-05 02:23 34.22239 -83.28673 28044 ft 490 kts 52°
2026-05-05 02:23 34.24262 -83.25341 28348 ft 491 kts 52°
2026-05-05 02:23 34.26284 -83.22009 28753 ft 490 kts 52°
2026-05-05 02:24 34.28299 -83.18686 29135 ft 490 kts 51°
2026-05-05 02:24 34.30314 -83.15367 29520 ft 489 kts 51°
2026-05-05 02:24 34.32330 -83.12048 29883 ft 490 kts 51°
2026-05-05 02:24 34.34354 -83.08735 30222 ft 489 kts 51°
2026-05-05 02:25 34.36357 -83.05465 30534 ft 489 kts 51°
2026-05-05 02:25 34.38384 -83.02158 30858 ft 489 kts 51°
2026-05-05 02:25 34.40407 -82.98858 31191 ft 488 kts 51°
2026-05-05 02:25 34.42426 -82.95553 31521 ft 487 kts 51°
2026-05-05 02:26 34.44438 -82.92254 31858 ft 487 kts 51°
2026-05-05 02:26 34.46445 -82.88958 32220 ft 486 kts 51°
2026-05-05 02:26 34.48447 -82.85663 32564 ft 485 kts 51°
2026-05-05 02:26 34.50449 -82.82366 32800 ft 487 kts 51°
2026-05-05 02:27 34.52464 -82.79049 32967 ft 491 kts 51°
2026-05-05 02:27 34.54494 -82.75703 33100 ft 494 kts 51°
2026-05-05 02:27 34.56533 -82.72342 33245 ft 496 kts 51°
2026-05-05 02:27 34.58579 -82.68963 33442 ft 497 kts 51°
2026-05-05 02:28 34.59933 -82.66726 33594 ft 497 kts 51°
2026-05-05 02:28 34.62645 -82.62246 33912 ft 497 kts 51°
2026-05-05 02:28 34.64684 -82.58870 34151 ft 496 kts 51°
2026-05-05 02:28 34.66726 -82.55482 34342 ft 496 kts 51°
2026-05-05 02:29 34.68754 -82.52080 34541 ft 496 kts 51°
2026-05-05 02:29 34.70757 -82.48677 34755 ft 496 kts 52°
2026-05-05 02:29 34.72107 -82.46368 34874 ft 495 kts 52°
2026-05-05 02:29 34.74748 -82.41842 35053 ft 496 kts 51°
2026-05-05 02:30 34.76068 -82.39580 35091 ft 496 kts 51°
2026-05-05 02:30 34.80060 -82.32741 35073 ft 495 kts 51°
2026-05-05 02:31 34.84049 -82.25907 35073 ft 495 kts 52°
2026-05-05 02:31 34.88043 -82.19062 35072 ft 495 kts 51°
2026-05-05 02:32 34.92028 -82.12218 35073 ft 495 kts 52°
2026-05-05 02:32 34.96015 -82.05365 35074 ft 495 kts 52°
2026-05-05 02:33 34.99991 -81.98503 35086 ft 496 kts 52°
2026-05-05 02:33 35.03969 -81.91633 35074 ft 496 kts 51°
2026-05-05 02:34 35.08085 -81.84873 35057 ft 495 kts 49°
2026-05-05 02:34 35.12310 -81.78204 35050 ft 495 kts 49°
2026-05-05 02:35 35.16509 -81.71521 35061 ft 496 kts 50°
2026-05-05 02:35 35.20638 -81.64823 35066 ft 496 kts 50°
2026-05-05 02:36 35.24813 -81.58019 35068 ft 497 kts 49°
2026-05-05 02:36 35.28974 -81.51248 35024 ft 498 kts 49°
2026-05-05 02:37 35.33114 -81.44501 35030 ft 499 kts 49°
2026-05-05 02:37 35.37310 -81.37658 35037 ft 499 kts 50°
2026-05-05 02:38 35.41476 -81.30849 35050 ft 499 kts 50°
2026-05-05 02:38 35.45615 -81.24072 35077 ft 499 kts 50°
2026-05-05 02:39 35.49774 -81.17242 35077 ft 499 kts 50°
2026-05-05 02:39 35.53929 -81.10413 35076 ft 499 kts 50°
2026-05-05 02:40 35.58074 -81.03580 35068 ft 499 kts 50°
2026-05-05 02:40 35.62213 -80.96740 35064 ft 499 kts 50°
2026-05-05 02:41 35.66349 -80.89893 35064 ft 499 kts 50°
2026-05-05 02:41 35.70485 -80.83041 35062 ft 499 kts 50°
2026-05-05 02:42 35.74614 -80.76177 35054 ft 499 kts 50°
2026-05-05 02:42 35.78743 -80.69299 35047 ft 499 kts 50°
2026-05-05 02:43 35.82840 -80.62467 35039 ft 499 kts 50°
2026-05-05 02:43 35.86956 -80.55574 35034 ft 499 kts 50°
2026-05-05 02:44 35.91068 -80.48681 35030 ft 499 kts 50°
2026-05-05 02:44 35.95184 -80.41785 35037 ft 499 kts 50°
2026-05-05 02:45 35.99302 -80.34883 35018 ft 499 kts 50°
2026-05-05 02:45 36.03415 -80.27984 35023 ft 499 kts 50°
2026-05-05 02:46 36.07524 -80.21072 35017 ft 499 kts 50°
2026-05-05 02:46 36.11631 -80.14157 35036 ft 499 kts 50°
2026-05-05 02:47 36.15727 -80.07239 35047 ft 499 kts 50°
2026-05-05 02:47 36.19820 -80.00306 35044 ft 499 kts 50°
2026-05-05 02:48 36.23888 -79.93413 35038 ft 499 kts 51°
2026-05-05 02:48 36.27979 -79.86460 35017 ft 499 kts 51°
2026-05-05 02:49 36.32067 -79.79503 35047 ft 499 kts 50°
2026-05-05 02:49 36.36152 -79.72540 35046 ft 499 kts 51°
2026-05-05 02:50 36.40222 -79.65574 35020 ft 499 kts 51°
2026-05-05 02:50 36.44291 -79.58599 35010 ft 499 kts 51°
2026-05-05 02:51 36.48352 -79.51610 35006 ft 499 kts 51°
2026-05-05 02:51 36.52422 -79.44627 35015 ft 498 kts 51°
2026-05-05 02:52 36.56483 -79.37644 35047 ft 498 kts 51°
2026-05-05 02:52 36.60509 -79.30689 35048 ft 498 kts 51°
2026-05-05 02:53 36.64557 -79.23690 35033 ft 498 kts 51°
2026-05-05 02:53 36.68600 -79.16672 35031 ft 498 kts 51°
2026-05-05 02:54 36.72635 -79.09658 35017 ft 498 kts 51°
2026-05-05 02:54 36.76669 -79.02643 35019 ft 498 kts 51°
2026-05-05 02:55 36.80668 -78.95664 35017 ft 497 kts 51°
2026-05-05 02:55 36.84706 -78.88581 35011 ft 497 kts 51°
2026-05-05 02:56 36.88676 -78.81569 35004 ft 497 kts 51°
2026-05-05 02:56 36.92660 -78.74505 35015 ft 497 kts 51°
2026-05-05 02:57 36.96650 -78.67445 35032 ft 497 kts 51°
2026-05-05 02:57 37.00634 -78.60375 35026 ft 497 kts 51°
2026-05-05 02:58 37.04608 -78.53300 35018 ft 496 kts 51°
2026-05-05 02:58 37.08577 -78.46234 35007 ft 496 kts 51°
2026-05-05 02:59 37.12541 -78.39152 35001 ft 496 kts 51°
2026-05-05 02:59 37.16465 -78.32106 35018 ft 496 kts 52°
2026-05-05 03:00 37.20699 -78.25352 35014 ft 488 kts 40°
2026-05-05 03:00 37.25987 -78.20126 35009 ft 483 kts 32°
2026-05-05 03:01 37.31381 -78.15088 34999 ft 483 kts 32°
2026-05-05 03:01 37.36759 -78.10026 35009 ft 483 kts 33°
2026-05-05 03:02 37.42136 -78.04958 34999 ft 482 kts 33°
2026-05-05 03:02 37.47503 -77.99892 34991 ft 482 kts 33°
2026-05-05 03:03 37.52836 -77.94853 34997 ft 482 kts 33°
2026-05-05 03:03 37.58193 -77.89792 35013 ft 481 kts 33°
2026-05-05 03:04 37.63539 -77.84716 35010 ft 481 kts 33°
2026-05-05 03:04 37.68892 -77.79648 35002 ft 480 kts 32°
2026-05-05 03:05 37.74239 -77.74596 34996 ft 480 kts 32°
2026-05-05 03:05 37.79595 -77.69527 34992 ft 480 kts 33°
2026-05-05 03:06 37.84908 -77.64469 34992 ft 480 kts 33°
2026-05-05 03:06 37.90227 -77.59349 34988 ft 480 kts 33°
2026-05-05 03:07 37.95556 -77.54209 34978 ft 481 kts 33°
2026-05-05 03:07 38.00888 -77.49074 34962 ft 482 kts 33°
2026-05-05 03:08 38.06238 -77.43922 34946 ft 483 kts 33°
2026-05-05 03:08 38.11683 -77.38946 34941 ft 482 kts 30°
2026-05-05 03:09 38.17252 -77.34322 34940 ft 481 kts 28°
2026-05-05 03:09 38.22885 -77.29712 34955 ft 482 kts 30°
2026-05-05 03:10 38.28475 -77.25003 34959 ft 482 kts 31°
2026-05-05 03:10 38.34041 -77.20230 34959 ft 482 kts 31°
2026-05-05 03:11 38.39461 -77.15182 34952 ft 486 kts 40°
2026-05-05 03:11 38.44219 -77.09026 34977 ft 486 kts 43°
2026-05-05 03:12 38.48946 -77.02864 34976 ft 485 kts 43°
2026-05-05 03:12 38.53661 -76.96717 34969 ft 484 kts 43°
2026-05-05 03:13 38.58369 -76.90547 34963 ft 484 kts 43°
2026-05-05 03:13 38.63058 -76.84379 34979 ft 483 kts 43°
2026-05-05 03:14 38.67684 -76.78232 34973 ft 483 kts 47°
2026-05-05 03:14 38.71184 -76.70892 34968 ft 487 kts 67°
2026-05-05 03:15 38.73055 -76.62542 34964 ft 488 kts 74°
2026-05-05 03:15 38.74808 -76.54147 34958 ft 488 kts 73°
2026-05-05 03:16 38.76238 -76.47349 34951 ft 488 kts 73°
2026-05-05 03:16 38.78014 -76.38797 34960 ft 488 kts 74°
2026-05-05 03:17 38.79744 -76.30380 34966 ft 488 kts 74°
2026-05-05 03:17 38.81472 -76.21972 34967 ft 488 kts 74°
2026-05-05 03:18 38.83205 -76.13556 34968 ft 488 kts 74°
2026-05-05 03:18 38.84924 -76.05141 34964 ft 488 kts 74°
2026-05-05 03:19 38.87471 -75.92530 33976 ft 495 kts 72°
2026-05-05 03:19 38.88660 -75.88419 33269 ft 487 kts 63°
2026-05-05 03:19 38.90306 -75.84650 32494 ft 483 kts 54°
2026-05-05 03:20 38.92382 -75.81289 31650 ft 480 kts 44°
2026-05-05 03:20 38.94848 -75.78418 30803 ft 477 kts 35°
2026-05-05 03:20 38.97530 -75.75903 29889 ft 478 kts 35°
2026-05-05 03:20 39.00220 -75.73388 28780 ft 480 kts 34°
2026-05-05 03:21 39.02977 -75.70945 27651 ft 482 kts 29°
2026-05-05 03:21 39.05974 -75.69015 26531 ft 482 kts 20°
2026-05-05 03:21 39.09174 -75.67715 25403 ft 483 kts 11°
2026-05-05 03:21 39.12492 -75.67100 24384 ft 482 kts
2026-05-05 03:22 39.15814 -75.66774 23651 ft 477 kts
2026-05-05 03:22 39.19107 -75.66423 22839 ft 472 kts
2026-05-05 03:22 39.22360 -75.66057 21995 ft 468 kts
2026-05-05 03:22 39.25586 -75.65569 21098 ft 467 kts
2026-05-05 03:23 39.28700 -75.64398 20446 ft 467 kts 20°
2026-05-05 03:23 39.31611 -75.62541 19823 ft 467 kts 30°
2026-05-05 03:23 39.34317 -75.60216 19209 ft 466 kts 33°
2026-05-05 03:23 39.36822 -75.57564 18603 ft 466 kts 44°
2026-05-05 03:24 39.38878 -75.54410 17985 ft 464 kts 55°
2026-05-05 03:24 39.40453 -75.50789 17420 ft 461 kts 66°
2026-05-05 03:24 39.41628 -75.46944 16877 ft 457 kts 69°
2026-05-05 03:24 39.42770 -75.43119 16363 ft 454 kts 69°
2026-05-05 03:25 39.43902 -75.39327 15827 ft 450 kts 68°
2026-05-05 03:25 39.45084 -75.35601 15297 ft 445 kts 63°
2026-05-05 03:25 39.46684 -75.32218 14772 ft 439 kts 51°
2026-05-05 03:25 39.48717 -75.29321 14250 ft 432 kts 40°
2026-05-05 03:26 39.51081 -75.26986 13703 ft 425 kts 31°
2026-05-05 03:26 39.53545 -75.24903 13133 ft 421 kts 31°
2026-05-05 03:26 39.55991 -75.22826 12548 ft 418 kts 30°
2026-05-05 03:26 39.58409 -75.20764 11974 ft 415 kts 31°
2026-05-05 03:27 39.60804 -75.18710 11385 ft 411 kts 31°
2026-05-05 03:27 39.63175 -75.16668 10969 ft 407 kts 30°
2026-05-05 03:27 39.65534 -75.14635 10876 ft 408 kts 30°
2026-05-05 03:27 39.67898 -75.12600 10725 ft 407 kts 30°
2026-05-05 03:28 39.70256 -75.10574 10546 ft 406 kts 30°
2026-05-05 03:28 39.72557 -75.08537 10364 ft 407 kts 35°
2026-05-05 03:28 39.74592 -75.05962 10191 ft 409 kts 45°
2026-05-05 03:28 39.76498 -75.03262 9981 ft 392 kts 45°
2026-05-05 03:29 39.78252 -75.00748 9583 ft 360 kts 45°
2026-05-05 03:29 39.79857 -74.98438 9342 ft 329 kts 45°
2026-05-05 03:29 39.81337 -74.96312 8943 ft 309 kts 45°
2026-05-05 03:29 39.82725 -74.94224 8203 ft 304 kts 52°
2026-05-05 03:30 39.83745 -74.91826 7413 ft 303 kts 68°
2026-05-05 03:30 39.84340 -74.89214 6673 ft 301 kts 75°
2026-05-05 03:30 39.84872 -74.86600 6143 ft 296 kts 76°
2026-05-05 03:30 39.85443 -74.84015 5985 ft 299 kts 68°
2026-05-05 03:31 39.86571 -74.81826 5753 ft 282 kts 39°
2026-05-05 03:31 39.88181 -74.80648 5529 ft 258 kts
2026-05-05 03:31 39.89922 -74.80598 5330 ft 246 kts 340°
2026-05-05 03:31 39.91423 -74.81518 5124 ft 236 kts 320°
2026-05-05 03:32 39.92756 -74.82752 4896 ft 233 kts 310°
2026-05-05 03:32 39.93733 -74.84363 4665 ft 223 kts 291°
2026-05-05 03:32 39.94232 -74.86225 4448 ft 215 kts 274°
2026-05-05 03:32 39.94242 -74.88137 4214 ft 210 kts 257°
2026-05-05 03:33 39.93900 -74.89972 3994 ft 208 kts 252°
2026-05-05 03:33 39.93545 -74.91786 3766 ft 204 kts 252°
2026-05-05 03:33 39.93207 -74.93521 3543 ft 196 kts 251°
2026-05-05 03:33 39.92874 -74.95217 3330 ft 189 kts 251°
2026-05-05 03:34 39.92552 -74.96855 3106 ft 184 kts 251°
2026-05-05 03:34 39.92237 -74.98457 3022 ft 181 kts 251°
2026-05-05 03:34 39.91925 -75.00041 3032 ft 181 kts 251°
2026-05-05 03:34 39.91611 -75.01631 3007 ft 181 kts 251°
2026-05-05 03:35 39.91298 -75.03221 2869 ft 181 kts 250°
2026-05-05 03:35 39.90987 -75.04800 2665 ft 180 kts 251°
2026-05-05 03:35 39.90675 -75.06377 2452 ft 178 kts 251°
2026-05-05 03:35 39.90379 -75.07886 2222 ft 167 kts 250°
2026-05-05 03:36 39.90097 -75.09314 2009 ft 159 kts 250°
2026-05-05 03:36 39.89825 -75.10685 1805 ft 154 kts 249°
2026-05-05 03:36 39.89567 -75.11994 1616 ft 144 kts 249°
2026-05-05 03:36 39.89321 -75.13235 1417 ft 140 kts 248°
2026-05-05 03:37 39.89079 -75.14454 1237 ft 137 kts 249°
2026-05-05 03:37 39.88841 -75.15652 1055 ft 136 kts 249°
2026-05-05 03:37 39.88602 -75.16850 873 ft 137 kts 250°
2026-05-05 03:37 39.88362 -75.18059 707 ft 138 kts 250°
2026-05-05 03:38 39.88128 -75.19239 535 ft 135 kts 251°
2026-05-05 03:38 39.87889 -75.20439 355 ft 137 kts 249°
2026-05-05 03:38 39.87650 -75.21643 171 ft 136 kts 250°
2026-05-05 03:38 39.87407 -75.22823 26 ft 129 kts 251°
2026-05-05 03:39 39.87249 -75.23630 26 ft 33 kts 254°
2026-05-05 03:39 39.87239 -75.23679 27 ft 3 kts 260°
2026-05-05 03:39 39.87239 -75.23759 26 ft 15 kts 281°
2026-05-05 03:39 39.87316 -75.23840 27 ft 15 kts 323°
2026-05-05 03:40 39.87396 -75.23826 29 ft 15 kts 57°
2026-05-05 03:40 39.87406 -75.23803 30 ft 0 kts 62°
2026-05-05 03:40 39.87407 -75.23802 30 ft 0 kts 62°
2026-05-05 03:41 39.87424 -75.23831 26 ft 10 kts 241°
2026-05-05 03:41 39.87409 -75.23919 25 ft 4 kts 318°
2026-05-05 03:41 39.87454 -75.23929 28 ft 7 kts 357°
2026-05-05 03:41 39.87490 -75.23932 26 ft 0 kts 355°
2026-05-05 03:42 39.87514 -75.23920 28 ft 11 kts 39°
2026-05-05 03:42 39.87524 -75.23893 27 ft 1 kts 71°
2026-05-05 03:42 39.87526 -75.23885 27 ft 0 kts 71°